This is the latest recevied weather packets stored in our database for station/object K4GSL. If no packets are shown the sender has not sent any weather packets the latest 10 day(s).
| Time | Temp. | Humidity | Pressure | Rain* | Wind** | Luminosity | Snow |
|---|---|---|---|---|---|---|---|
| 1777937499 | 21.67° C | 64% | 1016.1 hPa | 0 mm | - | 72 W/m² | - |
| 1777937197 | 21.11° C | 64% | 1016.2 hPa | 0 mm | - | 75 W/m² | - |
| 1777936893 | 21.11° C | 65% | 1016 hPa | 0 mm | - | 78 W/m² | - |
| 1777936590 | 21.67° C | 63% | 1016.1 hPa | 0 mm | - | 89 W/m² | - |
| 1777936287 | 21.11° C | 64% | 1016.2 hPa | 0 mm | - | 85 W/m² | - |
| 1777935983 | 21.67° C | 63% | 1016.2 hPa | 0 mm | - | 70 W/m² | - |
| 1777935682 | 21.67° C | 64% | 1016.5 hPa | 0 mm | - | 433 W/m² | - |
| 1777935379 | 21.11° C | 65% | 1016.5 hPa | 0 mm | - | 117 W/m² | - |
| 1777935075 | 21.11° C | 66% | 1016.3 hPa | 0 mm | - | 514 W/m² | - |
| 1777934772 | 20.56° C | 66% | 1016.6 hPa | 0 mm | - | 594 W/m² | - |
| 1777934469 | 20.56° C | 68% | 1016.6 hPa | 0 mm | - | 707 W/m² | - |
| 1777934166 | 20.56° C | 67% | 1016.6 hPa | 0 mm | - | 697 W/m² | - |
| 1777933862 | 20.56° C | 68% | 1016.7 hPa | 0 mm | - | 741 W/m² | - |
| 1777933559 | 20.56° C | 67% | 1016.8 hPa | 0 mm | - | 775 W/m² | - |
| 1777933256 | 20° C | 67% | 1016.8 hPa | 0 mm | - | 802 W/m² | - |
| 1777932953 | 20° C | 71% | 1017.1 hPa | 0 mm | - | 792 W/m² | - |
| 1777932650 | 19.44° C | 69% | 1017 hPa | 0 mm | - | 782 W/m² | - |
| 1777932347 | 20° C | 69% | 1017.1 hPa | 0 mm | - | 768 W/m² | - |
| 1777932044 | 20° C | 67% | 1017.2 hPa | 0 mm | - | 781 W/m² | - |
| 1777931740 | 20° C | 68% | 1017 hPa | 0 mm | - | 723 W/m² | - |
| 1777931438 | 19.44° C | 70% | 1017.3 hPa | 0 mm | - | 598 W/m² | - |
| 1777931133 | 19.44° C | 69% | 1017.2 hPa | 0 mm | - | 574 W/m² | - |
| 1777930830 | 20° C | 68% | 1017.4 hPa | 0 mm | - | 707 W/m² | - |
| 1777930526 | 19.44° C | 70% | 1017.4 hPa | 0 mm | - | 777 W/m² | - |
| 1777930224 | 18.89° C | 71% | 1017.5 hPa | 0 mm | - | 707 W/m² | - |
* Rain latest hour (hover to see other rain measurements)
** Current wind speed in m/s (hover to see current wind gust speed)